Time,TemperatureF,DewpointF,PressureIn,WindDirection,WindDirectionDegrees,WindSpeedMPH,WindSpeedGustMPH,Humidity,HourlyPrecipIn,Conditions,Clouds,dailyrainin,SoftwareType,DateUTC
2013-06-14 00:00:00,76.1,70.5,29.81,SSW,202,0.0,-999.0,83,-99.99,,,0.00,Acu-Link.com,2013-06-14 04:00:00,
2013-06-14 00:15:00,75.9,70.7,29.82,SSW,202,0.0,-999.0,84,-99.99,,,0.00,Acu-Link.com,2013-06-14 04:15:00,
2013-06-14 00:31:00,75.7,70.5,29.82,South,180,0.0,-999.0,84,-99.99,,,0.00,Acu-Link.com,2013-06-14 04:31:00,
2013-06-14 00:46:00,75.6,70.8,29.82,WSW,247,1.7,-999.0,85,-99.99,,,0.00,Acu-Link.com,2013-06-14 04:46:00,
2013-06-14 01:01:00,75.6,70.8,29.82,SSW,202,2.2,-999.0,85,-99.99,,,0.00,Acu-Link.com,2013-06-14 05:01:00,
2013-06-14 01:16:00,75.7,71.2,29.81,SSW,202,2.7,-999.0,86,-99.99,,,0.00,Acu-Link.com,2013-06-14 05:16:00,
2013-06-14 01:31:00,75.6,71.1,29.81,SW,225,2.7,-999.0,86,-99.99,,,0.00,Acu-Link.com,2013-06-14 05:31:00,
2013-06-14 01:46:00,75.6,71.4,29.80,SW,225,0.0,-999.0,87,-99.99,,,0.00,Acu-Link.com,2013-06-14 05:46:00,
2013-06-14 02:01:00,75.4,71.6,29.80,SW,225,1.7,-999.0,88,-99.99,,,0.00,Acu-Link.com,2013-06-14 06:01:00,
2013-06-14 02:16:00,75.2,71.7,29.80,SW,225,1.7,-999.0,89,-99.99,,,0.00,Acu-Link.com,2013-06-14 06:16:00,
2013-06-14 02:31:00,75.2,71.7,29.79,South,180,1.1,-999.0,89,-99.99,,,0.00,Acu-Link.com,2013-06-14 06:31:00,
2013-06-14 02:46:00,75.2,72.1,29.79,SSW,202,1.7,-999.0,90,-99.99,,,0.00,Acu-Link.com,2013-06-14 06:46:00,
2013-06-14 03:02:00,75.2,72.1,29.79,SSW,202,1.1,-999.0,90,-99.99,,,0.00,Acu-Link.com,2013-06-14 07:02:00,
2013-06-14 03:17:00,75.2,72.4,29.79,South,180,1.7,-999.0,91,-99.99,,,0.00,Acu-Link.com,2013-06-14 07:17:00,
2013-06-14 03:32:00,75.0,72.5,29.78,South,180,3.2,-999.0,92,-99.99,,,0.00,Acu-Link.com,2013-06-14 07:32:00,
2013-06-14 03:47:00,74.8,72.3,29.77,WSW,247,1.7,-999.0,92,-99.99,,,0.00,Acu-Link.com,2013-06-14 07:47:00,
2013-06-14 04:02:00,74.7,72.5,29.78,SW,225,2.7,-999.0,93,-99.99,,,0.00,Acu-Link.com,2013-06-14 08:02:00,
2013-06-14 04:18:00,74.7,72.5,29.78,SSW,202,2.7,-999.0,93,-99.99,,,0.00,Acu-Link.com,2013-06-14 08:18:00,
2013-06-14 04:34:00,74.7,72.5,29.78,SSW,202,2.2,-999.0,93,-99.99,,,0.00,Acu-Link.com,2013-06-14 08:34:00,
2013-06-14 04:49:00,74.8,73.0,29.77,SSW,202,2.2,-999.0,94,-99.99,,,0.00,Acu-Link.com,2013-06-14 08:49:00,
2013-06-14 05:04:00,75.0,73.2,29.76,SSW,202,1.7,-999.0,94,-99.99,,,0.00,Acu-Link.com,2013-06-14 09:04:00,
2013-06-14 05:19:00,74.8,73.0,29.76,SSW,202,2.2,-999.0,94,-99.99,,,0.00,Acu-Link.com,2013-06-14 09:19:00,
2013-06-14 05:35:00,74.7,73.2,29.75,SSW,202,2.2,-999.0,95,-99.99,,,0.00,Acu-Link.com,2013-06-14 09:35:00,
2013-06-14 05:50:00,74.7,73.2,29.76,South,180,1.7,-999.0,95,-99.99,,,0.00,Acu-Link.com,2013-06-14 09:50:00,
2013-06-14 06:05:00,74.3,73.1,29.76,South,180,2.2,-999.0,96,-99.99,,,0.00,Acu-Link.com,2013-06-14 10:05:00,
2013-06-14 06:20:00,74.3,73.1,29.76,South,180,0.0,-999.0,96,-99.99,,,0.00,Acu-Link.com,2013-06-14 10:20:00,
2013-06-14 06:35:00,74.5,73.6,29.77,SW,225,2.7,-999.0,97,-99.99,,,0.00,Acu-Link.com,2013-06-14 10:35:00,
2013-06-14 06:50:00,74.8,73.9,29.78,SW,225,0.0,-999.0,97,-99.99,,,0.00,Acu-Link.com,2013-06-14 10:50:00,
2013-06-14 07:05:00,75.6,74.7,29.77,South,180,0.0,-999.0,97,-99.99,,,0.00,Acu-Link.com,2013-06-14 11:05:00,
2013-06-14 07:20:00,77.2,75.7,29.78,West,270,2.7,-999.0,95,-99.99,,,0.00,Acu-Link.com,2013-06-14 11:20:00,
2013-06-14 07:35:00,79.2,76.0,29.78,WSW,247,2.2,-999.0,90,-99.99,,,0.00,Acu-Link.com,2013-06-14 11:35:00,
2013-06-14 07:51:00,80.8,75.9,29.78,SW,225,3.7,-999.0,85,-99.99,,,0.00,Acu-Link.com,2013-06-14 11:51:00,
2013-06-14 08:06:00,82.0,75.6,29.77,SW,225,4.7,-999.0,81,-99.99,,,0.00,Acu-Link.com,2013-06-14 12:06:00,
2013-06-14 08:21:00,82.6,75.8,29.78,SW,225,4.2,-999.0,80,-99.99,,,0.00,Acu-Link.com,2013-06-14 12:21:00,
2013-06-14 08:36:00,83.5,75.5,29.78,SW,225,3.7,-999.0,77,-99.99,,,0.00,Acu-Link.com,2013-06-14 12:36:00,
2013-06-14 08:51:00,84.7,75.1,29.77,SW,225,3.2,-999.0,73,-99.99,,,0.00,Acu-Link.com,2013-06-14 12:51:00,
2013-06-14 09:06:00,84.9,74.8,29.79,West,270,6.8,-999.0,72,-99.99,,,0.00,Acu-Link.com,2013-06-14 13:06:00,
2013-06-14 09:21:00,84.7,75.1,29.78,West,270,5.8,-999.0,73,-99.99,,,0.00,Acu-Link.com,2013-06-14 13:21:00,
2013-06-14 09:36:00,84.0,74.8,29.79,West,270,6.8,-999.0,74,-99.99,,,0.00,Acu-Link.com,2013-06-14 13:36:00,
2013-06-14 09:51:00,85.1,75.0,29.79,WSW,247,4.7,-999.0,72,-99.99,,,0.00,Acu-Link.com,2013-06-14 13:51:00,
2013-06-14 10:07:00,86.7,75.3,29.79,West,270,7.3,-999.0,69,-99.99,,,0.00,Acu-Link.com,2013-06-14 14:07:00,
2013-06-14 10:22:00,86.0,74.6,29.78,SSW,202,6.8,-999.0,69,-99.99,,,0.00,Acu-Link.com,2013-06-14 14:22:00,
2013-06-14 10:37:00,86.5,74.2,29.78,South,180,8.3,-999.0,67,-99.99,,,0.00,Acu-Link.com,2013-06-14 14:37:00,
2013-06-14 10:52:00,87.3,74.1,29.79,WSW,247,9.9,-999.0,65,-99.99,,,0.00,Acu-Link.com,2013-06-14 14:52:00,
2013-06-14 11:07:00,88.0,74.3,29.80,SW,225,8.9,-999.0,64,-99.99,,,0.00,Acu-Link.com,2013-06-14 15:07:00,
2013-06-14 11:22:00,87.8,74.1,29.79,West,270,11.4,-999.0,64,-99.99,,,0.00,Acu-Link.com,2013-06-14 15:22:00,
2013-06-14 11:37:00,88.3,74.5,29.79,WSW,247,6.3,-999.0,64,-99.99,,,0.00,Acu-Link.com,2013-06-14 15:37:00,
2013-06-14 11:52:00,88.7,74.0,29.78,SW,225,4.2,-999.0,62,-99.99,,,0.00,Acu-Link.com,2013-06-14 15:52:00,
2013-06-14 12:07:00,89.4,73.7,29.78,West,270,6.8,-999.0,60,-99.99,,,0.00,Acu-Link.com,2013-06-14 16:07:00,
2013-06-14 12:23:00,89.4,73.1,29.78,West,270,6.8,-999.0,59,-99.99,,,0.00,Acu-Link.com,2013-06-14 16:23:00,
2013-06-14 12:38:00,90.1,73.8,29.78,West,270,11.4,-999.0,59,-99.99,,,0.00,Acu-Link.com,2013-06-14 16:38:00,
2013-06-14 12:53:00,89.8,73.0,29.78,WSW,247,5.8,-999.0,58,-99.99,,,0.00,Acu-Link.com,2013-06-14 16:53:00,
2013-06-14 13:08:00,91.0,73.6,29.77,West,270,4.7,-999.0,57,-99.99,,,0.00,Acu-Link.com,2013-06-14 17:08:00,
2013-06-14 13:23:00,91.0,72.6,29.76,WSW,247,6.8,-999.0,55,-99.99,,,0.00,Acu-Link.com,2013-06-14 17:23:00,
2013-06-14 13:38:00,92.8,73.7,29.77,WSW,247,9.4,-999.0,54,-99.99,,,0.00,Acu-Link.com,2013-06-14 17:38:00,
2013-06-14 13:54:00,93.7,73.9,29.76,NNW,337,3.2,-999.0,53,-99.99,,,0.00,Acu-Link.com,2013-06-14 17:54:00,
2013-06-14 14:09:00,92.5,72.8,29.75,SSW,202,5.8,-999.0,53,-99.99,,,0.00,Acu-Link.com,2013-06-14 18:09:00,
2013-06-14 14:24:00,93.2,71.7,29.74,SSW,202,6.8,-999.0,50,-99.99,,,0.00,Acu-Link.com,2013-06-14 18:24:00,
2013-06-14 14:39:00,93.6,72.1,29.74,West,270,4.2,-999.0,50,-99.99,,,0.00,Acu-Link.com,2013-06-14 18:39:00,
2013-06-14 14:54:00,94.1,72.0,29.75,West,270,9.4,-999.0,49,-99.99,,,0.00,Acu-Link.com,2013-06-14 18:54:00,
2013-06-14 15:09:00,94.8,70.7,29.74,West,270,9.9,-999.0,46,-99.99,,,0.00,Acu-Link.com,2013-06-14 19:09:00,
2013-06-14 15:25:00,93.7,70.4,29.74,West,270,3.2,-999.0,47,-99.99,,,0.00,Acu-Link.com,2013-06-14 19:25:00,
2013-06-14 15:40:00,95.7,71.6,29.74,SSW,202,5.8,-999.0,46,-99.99,,,0.00,Acu-Link.com,2013-06-14 19:40:00,
2013-06-14 15:55:00,93.0,71.0,29.73,WSW,247,6.8,-999.0,49,-99.99,,,0.00,Acu-Link.com,2013-06-14 19:55:00,
2013-06-14 16:10:00,94.5,70.5,29.74,West,270,6.8,-999.0,46,-99.99,,,0.00,Acu-Link.com,2013-06-14 20:10:00,
2013-06-14 16:25:00,94.3,70.3,29.74,WSW,247,3.7,-999.0,46,-99.99,,,0.00,Acu-Link.com,2013-06-14 20:25:00,
2013-06-14 16:40:00,90.9,73.5,29.75,WNW,292,7.8,-999.0,57,-99.99,,,0.00,Acu-Link.com,2013-06-14 20:40:00,
2013-06-14 16:55:00,84.0,70.0,29.75,NW,315,8.3,-999.0,63,-99.99,,,0.00,Acu-Link.com,2013-06-14 20:55:00,
2013-06-14 17:11:00,82.8,67.5,29.75,NE,45,5.8,-999.0,60,-99.99,,,0.00,Acu-Link.com,2013-06-14 21:11:00,
2013-06-14 17:26:00,82.9,67.6,29.74,NE,45,6.3,-999.0,60,-99.99,,,0.00,Acu-Link.com,2013-06-14 21:26:00,
2013-06-14 17:41:00,85.8,68.3,29.73,NE,45,5.3,-999.0,56,-99.99,,,0.00,Acu-Link.com,2013-06-14 21:41:00,
2013-06-14 17:56:00,89.1,70.8,29.73,NNE,22,6.3,-999.0,55,-99.99,,,0.00,Acu-Link.com,2013-06-14 21:56:00,
2013-06-14 18:12:00,91.8,73.3,29.73,SE,135,3.2,-999.0,55,-99.99,,,0.00,Acu-Link.com,2013-06-14 22:12:00,
2013-06-14 18:27:00,87.6,72.5,29.74,SSE,157,4.2,-999.0,61,-99.99,,,0.00,Acu-Link.com,2013-06-14 22:27:00,
2013-06-14 18:42:00,86.4,71.3,29.74,SW,225,7.3,-999.0,61,-99.99,,,0.00,Acu-Link.com,2013-06-14 22:42:00,
2013-06-14 18:57:00,84.6,71.1,29.75,SSW,202,6.8,-999.0,64,-99.99,,,0.00,Acu-Link.com,2013-06-14 22:57:00,
2013-06-14 19:12:00,82.9,70.3,29.76,West,270,6.8,-999.0,66,-99.99,,,0.00,Acu-Link.com,2013-06-14 23:12:00,
2013-06-14 19:28:00,82.0,70.8,29.76,SW,225,11.4,-999.0,69,-99.99,,,0.00,Acu-Link.com,2013-06-14 23:28:00,
2013-06-14 19:43:00,80.8,70.9,29.77,SW,225,7.8,-999.0,72,-99.99,,,0.00,Acu-Link.com,2013-06-14 23:43:00,
2013-06-14 19:58:00,79.9,71.2,29.77,South,180,4.2,-999.0,75,-99.99,,,0.00,Acu-Link.com,2013-06-14 23:58:00,
2013-06-14 20:13:00,79.9,71.2,29.76,SSW,202,2.7,-999.0,75,-99.99,,,0.00,Acu-Link.com,2013-06-15 00:13:00,
2013-06-14 20:28:00,79.7,71.4,29.77,South,180,1.7,-999.0,76,-99.99,,,0.00,Acu-Link.com,2013-06-15 00:28:00,
2013-06-14 20:43:00,78.8,71.0,29.77,South,180,3.2,-999.0,77,-99.99,,,0.00,Acu-Link.com,2013-06-15 00:43:00,
2013-06-14 20:59:00,77.9,70.1,29.77,SSW,202,2.2,-999.0,77,-99.99,,,0.00,Acu-Link.com,2013-06-15 00:59:00,
2013-06-14 21:14:00,77.9,70.1,29.76,SSW,202,2.7,-999.0,77,-99.99,,,0.00,Acu-Link.com,2013-06-15 01:14:00,
2013-06-14 21:29:00,78.1,70.3,29.77,South,180,3.7,-999.0,77,-99.99,,,0.00,Acu-Link.com,2013-06-15 01:29:00,
2013-06-14 21:44:00,77.9,70.1,29.79,SW,225,1.7,-999.0,77,-99.99,,,0.00,Acu-Link.com,2013-06-15 01:44:00,
2013-06-14 21:59:00,77.9,69.7,29.79,South,180,1.7,-999.0,76,-99.99,,,0.00,Acu-Link.com,2013-06-15 01:59:00,
2013-06-14 22:14:00,77.7,69.9,29.80,South,180,2.2,-999.0,77,-99.99,,,0.00,Acu-Link.com,2013-06-15 02:14:00,
2013-06-14 22:30:00,77.7,70.3,29.79,WSW,247,1.1,-999.0,78,-99.99,,,0.00,Acu-Link.com,2013-06-15 02:30:00,
2013-06-14 22:45:00,77.5,70.5,29.79,South,180,0.0,-999.0,79,-99.99,,,0.00,Acu-Link.com,2013-06-15 02:45:00,
2013-06-14 23:00:00,77.4,71.1,29.80,SW,225,3.2,-999.0,81,-99.99,,,0.00,Acu-Link.com,2013-06-15 03:00:00,
2013-06-14 23:15:00,77.2,71.3,29.80,SSW,202,3.7,-999.0,82,-99.99,,,0.00,Acu-Link.com,2013-06-15 03:15:00,
2013-06-14 23:30:00,77.2,72.0,29.79,SSW,202,3.2,-999.0,84,-99.99,,,0.00,Acu-Link.com,2013-06-15 03:30:00,
2013-06-14 23:45:00,77.2,72.0,29.79,SW,225,2.7,-999.0,84,-99.99,,,0.00,Acu-Link.com,2013-06-15 03:45:00,